Location: Bartlow
(52.0833°N, 0.3167°E)
Time: 18:48:58
(UTC+00:00)

Meteor 2-17 Rocket - Pass Details

Date: 30 April 2024
Orbit: 934 x 957 km, 82.5° (Epoch: 23 May)

Event Time Altitude Azimuth Distance (km) Brightness Sun altitude
Exits shadow 23:40:13 24° 117° (ESE) 1,867 5.7 -22.7°
Maximum altitude 23:42:19 29° 85° (E) 1,657 5.7 -22.7°
Drops below altitude 10° 23:47:25 10° 28° (NNE) 2,665 7.6 -22.7°
Sets 23:50:12 0° 18° (NNE) 3,611 8.7 -22.7°
